Location: Newark
(51.5700°N, 17.6700°E)
Time: 11:19:46
(UTC+00:00)

Starlink Launch 2 trailer - Visible Passes

Search period start: 07 December 2019 00:00
Search period end: 17 December 2019 00:00
Orbit: 279 x 281 km, 53.0° (Epoch: 13 November)

Date Brightness Start Highest point End Pass type
(mag) Time Alt. Az. Time Alt. Az. Time Alt. Az.
07 Dec 6.1 03:49:30 11° ESE 03:49:30 11° ESE 03:49:37 10° ESE visible
07 Dec 4.3 05:19:37 15° WSW 05:20:30 18° SW 05:22:17 10° S visible
08 Dec 4.8 05:21:39 10° SW 05:22:15 11° SW 05:23:04 10° SSW visible
